[[{"header":{"parameterUnit":"m.s-1","parameterCategory":1,"la1":30.2991,"la2":30.254,"lo1":-89.0895,"lo2":-89.0444,"dy":0.0017,"dx":0.0017,"nx":28,"ny":28,"refTime":"2024-09-04T03:00:00:Z","depth":0,"parameterNumber":2,"parameterNumberName":"U-component_of_WINDS"},"data":[0,0,0,0,0,0,0,0,0,0,0,0,0,0,0,0,0,0,0,0,0,0,0,0,0,0,0,0,0,0,0,0,0,0,0,0,0,0,0,0,0,0,0,0,0,0,0,0,0,0,0,0,0,0,0,0,0,0,-8.2406,-8.2407,0,-8.2496,-8.2497,-8.2498,-8.2329,-8.2324,-8.2318,-8.2313,-8.2405,-8.2413,-8.242,0,0,0,0,0,0,0,0,0,0,0,0,0,-8.2089,-8.2096,-8.2406,-8.2407,-8.2408,-8.2496,-8.2497,-8.2498,-8.233,-8.2324,-8.2317,-8.231,-8.2403,-8.2412,-8.2421,0,0,0,0,0,0,0,0,0,0,0,0,0,-8.2208,-8.2098,-8.2406,-8.2335,-8.233,-8.2495,-8.2497,-8.2498,-8.2332,-8.2323,-8.2315,-8.2307,-8.24,-8.2411,-8.2422,-8.2661,0,0,-8.2458,-8.2463,0,0,0,0,0,0,0,0,-8.2201,-8.2219,-8.2344,-8.234,-8.2334,-8.2393,-8.2419,-8.2553,-8.2334,-8.2331,-8.2313,-8.2303,-8.2408,-8.2418,-8.2454,-8.2666,-8.267,-8.2459,-8.2466,-8.2471,-8.2474,0,0,0,0,0,0,0,-8.2193,-8.2215,-8.2441,-8.2346,-8.234,-8.2299,-8.2306,-8.2443,-8.2416,-8.2331,-8.2319,-8.2332,-8.2404,-8.2443,-8.2455,-8.2671,-8.2458,-8.2469,-8.2476,-8.248,-8.3083,-8.3092,0,0,0,0,0,0,-8.2194,-8.2209,-8.2438,-8.2444,-8.2246,-8.2311,-8.232,-8.2383,-8.2414,-8.241,-8.2339,-8.2323,-8.2427,-8.2441,-8.2457,-8.2738,-8.247,-8.2481,-8.2488,-8.3074,-8.3085,-8.3095,0,0,0,0,0,0,-8.2188,-8.2216,-8.2435,-8.2323,-8.2348,-8.2326,-8.2398,-8.2389,-8.2428,-8.242,-8.2414,-8.2384,-8.2421,-8.2441,-8.2612,-8.2739,-8.2486,-8.2497,-8.3063,-8.3077,-8.309,-8.3303,0,0,0,0,0,0,-8.2179,-8.2215,-8.2305,-8.2327,-8.2355,-8.2589,-8.2405,-8.2397,-8.2448,-8.2429,-8.246,-8.2458,-8.2416,-8.2595,-8.2623,-8.275,-8.2506,-8.3052,-8.3069,-8.3086,-8.3285,-8.3322,-8.3355,0,0,0,0,0,-8.2168,-8.2362,-8.2311,-8.2339,-8.2468,-8.2596,-8.2612,-8.2561,-8.2459,-8.255,-8.2544,-8.2457,-8.2721,-8.2614,-8.2644,-8.2777,-8.3043,-8.3064,-8.3084,-8.3269,-8.3315,-8.3354,0,0,0,0,0,0,-8.2356,-8.2363,-8.2307,-8.2513,-8.2555,-8.2568,-8.268,-8.2611,-8.2683,-8.2662,-8.2595,-8.2604,-8.2788,-8.2799,-8.268,-8.3009,-8.2865,-8.2892,-8.2995,-8.3039,-8.3073,-8.3066,-8.2515,0,0,0,0,0,-8.2422,-8.2526,-8.2526,-8.2708,-8.2732,-8.2704,-8.2758,-8.2714,-8.2755,-8.2772,-8.2779,-8.2823,-8.2915,-8.2978,-8.3062,-8.3286,-8.329,-8.3392,-8.3427,-8.3456,-8.348,-8.3598,-8.3643,-8.3162,-8.3162,-8.3162,0,0,-8.2558,-8.2575,-8.2644,-8.2746,-8.2774,-8.2883,-8.272,-8.2842,-8.2922,-8.2791,-8.2952,-8.296,-8.3003,-8.3201,-8.3289,-8.3216,-8.3614,-8.3482,-8.3505,-8.3513,-8.3624,-8.3669,-8.371,-8.3176,-8.3173,-8.3171,0,0,-8.2861,-8.2885,-8.3038,-8.307,-8.3114,-8.3093,-8.313,-8.3154,-8.3153,-8.3314,-8.3218,-8.3312,-8.3473,-8.3508,-8.3548,-8.3865,-8.3787,-8.3895,-8.4078,-8.4194,-8.4232,-8.4265,-8.4378,-8.4419,-8.3919,-8.392,-8.392,0,-8.3025,-8.3185,-8.3126,-8.3256,-8.3303,-8.3189,-8.3344,-8.3378,-8.3448,-8.3483,-8.3401,-8.36,-8.3622,-8.3826,-8.3904,-8.394,-8.398,-8.389,-8.4231,-8.4264,-8.4294,-8.4401,-8.4443,-8.3932,-8.3931,-8.393,-8.3928,0,-8.3384,-8.3497,-8.3616,-8.3686,-8.3747,-8.3889,-8.3851,-8.392,-8.3872,-8.386,-8.4025,-8.4047,-8.4134,-8.418,-8.4134,-8.4378,-8.4331,-8.4242,-8.4095,-8.4354,-8.4453,-8.4493,-8.3951,-8.3946,-8.3942,-8.3939,0,0,-8.3807,-8.3843,-8.3888,-8.3918,-8.3959,-8.4045,-8.4181,-8.4266,-8.4326,-8.4379,-8.4491,-8.463,-8.4547,-8.4592,-8.4549,-8.4651,-8.4901,-8.4548,-8.4548,-8.4612,-8.517,-8.5237,-8.5286,-8.4849,-8.4857,-8.4863,-8.5166,0,-8.4108,-8.4343,-8.4294,-8.4524,-8.4627,-8.4521,-8.464,-8.4678,-8.4671,-8.4757,-8.4749,-8.4849,-8.4732,-8.4758,-8.4855,-8.485,-8.5012,-8.4827,-8.4953,-8.4958,-8.4944,-8.5337,-8.5408,-8.5694,-8.5205,-8.5211,-8.5216,0,-8.449,-8.4556,-8.4797,-8.482,-8.4862,-8.497,-8.5043,-8.5128,-8.5168,-8.5156,-8.5207,-8.5144,-8.5279,-8.5132,-8.5317,-8.5193,-8.5242,-8.5248,-8.5257,-8.5266,-8.5102,-8.5356,-8.5783,-8.5826,-8.5277,-8.5272,-8.5267,0,-8.4774,-8.4924,-8.5086,-8.5116,-8.5148,-8.5226,-8.5243,-8.5275,-8.5329,-8.5394,-8.5428,-8.5509,-8.5553,-8.5616,-8.5577,-8.5473,-8.5769,-8.5619,-8.5762,-8.5764,-8.5829,-8.5825,-8.6269,-8.5862,-8.5862,-8.5861,-8.586,0,-8.5114,-8.5265,-8.5214,-8.5315,-8.5481,-8.5424,-8.559,-8.5594,-8.5624,-8.5723,-8.5637,-8.5732,-8.5675,-8.5765,-8.5736,-8.5894,-8.5914,-8.5908,-8.5898,-8.5915,-8.5916,-8.5945,-8.5924,-8.5872,-8.587,-8.5867,-8.5865,0,-8.5459,-8.5431,-8.5601,-8.5618,-8.5625,-8.5747,-8.5761,-8.5854,-8.5841,-8.5968,-8.5994,-8.5973,-8.6076,-8.6043,-8.6153,-8.6133,-8.6334,-8.6299,-8.632,-8.6311,-8.6456,-8.6443,-8.6934,-8.6995,-8.655,-8.6554,-8.6558,0,-8.5677,-8.5791,-8.5819,-8.588,-8.5903,-8.6001,-8.6056,-8.6004,-8.6065,-8.612,-8.6207,-8.6301,-8.6374,-8.6543,-8.6537,-8.6621,-8.6587,-8.6753,-8.6599,-8.6613,-8.6588,-8.6582,-8.6593,-8.6784,-8.6789,-8.6793,-8.6797,0,-8.6067,-8.6048,-8.613,-8.6209,-8.6276,-8.6336,-8.6387,-8.6441,-8.6392,-8.6465,-8.6568,-8.6625,-8.6738,-8.6833,-8.6909,-8.6925,-8.6854,-8.6846,-8.6883,-8.6901,-8.6909,-8.6906,-8.6403,-8.6834,-8.683,-8.6828,-8.6826,-8.6824,-8.6355,-8.6451,-8.6486,-8.658,-8.6613,-8.6664,-8.6752,-8.675,-8.6835,-8.6922,-8.6887,-8.7006,-8.7043,-8.7138,-8.7165,-8.7258,-8.7194,-8.7248,-8.7262,-8.7276,-8.7294,-8.6895,-8.7272,-8.727,-8.7269,-8.7268,-8.7268,0,-8.674,-8.6757,-8.6845,-8.6919,-8.6994,-8.692,-8.6973,-8.704,-8.7146,-8.7187,-8.726,-8.7379,-8.7471,-8.7474,-8.7559,-8.7633,-8.7602,-8.7657,-8.765,-8.7655,-8.7347,-8.7306,-8.768,-8.768,-8.768,-8.768,-8.768,-8.768,-8.6949,-8.7107,-8.7092,-8.7266,-8.7282,-8.7398,-8.7434,-8.748,-8.7512,-8.7649,-8.7725,-8.7726,-8.7751,-8.7838,-8.7919,-8.7917,-8.7953,-8.802,-8.8006,-8.7718,-8.7677,-8.7638,-8.7598,-8.8028,-8.8029,-8.8306,-8.8309,-8.8311]},{"header":{"parameterUnit":"m.s-1","parameterCategory":1,"la1":30.2991,"la2":30.254,"lo1":-89.0895,"lo2":-89.0444,"dy":0.0017,"dx":0.0017,"nx":28,"ny":28,"refTime":"2024-09-04T03:00:00:Z","depth":0,"parameterNumber":3,"parameterNumberName":"V-component_of_WINDS"},"data":[0,0,0,0,0,0,0,0,0,0,0,0,0,0,0,0,0,0,0,0,0,0,0,0,0,0,0,0,0,0,0,0,0,0,0,0,0,0,0,0,0,0,0,0,0,0,0,0,0,0,0,0,0,0,0,0,0,0,-1.6685,-1.6684,0,-1.6672,-1.6671,-1.6671,-1.6632,-1.6631,-1.663,-1.6629,-1.6617,-1.6617,-1.6618,0,0,0,0,0,0,0,0,0,0,0,0,0,-1.6675,-1.6675,-1.6685,-1.6684,-1.6684,-1.6672,-1.6671,-1.6671,-1.6632,-1.6631,-1.663,-1.6629,-1.6617,-1.6617,-1.6618,0,0,0,0,0,0,0,0,0,0,0,0,0,-1.6672,-1.6676,-1.6685,-1.6663,-1.6661,-1.6672,-1.6671,-1.6671,-1.6632,-1.6631,-1.663,-1.6628,-1.6617,-1.6617,-1.6618,-1.6649,0,0,-1.662,-1.6621,0,0,0,0,0,0,0,0,-1.6673,-1.6673,-1.6666,-1.6665,-1.6662,-1.6652,-1.6663,-1.6664,-1.6632,-1.6643,-1.6629,-1.6628,-1.663,-1.6629,-1.663,-1.6648,-1.6648,-1.662,-1.6621,-1.6621,-1.6621,0,0,0,0,0,0,0,-1.6673,-1.6673,-1.6679,-1.6666,-1.6664,-1.6654,-1.6652,-1.6663,-1.6644,-1.6642,-1.6639,-1.6638,-1.6628,-1.6629,-1.6629,-1.6647,-1.662,-1.6621,-1.6621,-1.6622,-1.6688,-1.6689,0,0,0,0,0,0,-1.6676,-1.6674,-1.668,-1.6679,-1.6664,-1.6655,-1.6653,-1.6657,-1.6644,-1.664,-1.6639,-1.6636,-1.6629,-1.6628,-1.6629,-1.6662,-1.6621,-1.6622,-1.6622,-1.6687,-1.6688,-1.669,0,0,0,0,0,0,-1.6676,-1.6677,-1.668,-1.6675,-1.6675,-1.6657,-1.6661,-1.6657,-1.6658,-1.6642,-1.6638,-1.6644,-1.6628,-1.6628,-1.6643,-1.6661,-1.6622,-1.6623,-1.6685,-1.6687,-1.6689,-1.673,0,0,0,0,0,0,-1.6676,-1.6677,-1.6689,-1.6676,-1.6676,-1.6696,-1.6662,-1.6658,-1.6659,-1.6655,-1.6645,-1.6642,-1.6627,-1.6643,-1.6644,-1.6661,-1.6623,-1.6683,-1.6686,-1.6688,-1.6727,-1.6733,-1.6738,0,0,0,0,0,-1.6676,-1.6702,-1.669,-1.6691,-1.669,-1.6697,-1.6696,-1.6678,-1.6661,-1.6672,-1.6661,-1.6642,-1.6659,-1.6644,-1.6646,-1.6664,-1.6682,-1.6685,-1.6688,-1.6724,-1.6732,-1.6738,0,0,0,0,0,0,-1.6718,-1.67,-1.6686,-1.6709,-1.6705,-1.669,-1.6704,-1.6687,-1.6688,-1.6684,-1.6662,-1.666,-1.6678,-1.6673,-1.6657,-1.6691,-1.6667,-1.6671,-1.6694,-1.6701,-1.6707,-1.6707,-1.6624,0,0,0,0,0,-1.673,-1.6737,-1.6721,-1.6742,-1.6741,-1.6723,-1.6725,-1.6711,-1.6706,-1.6704,-1.6695,-1.669,-1.6694,-1.6698,-1.6701,-1.6726,-1.6722,-1.6739,-1.6745,-1.6749,-1.6752,-1.6763,-1.677,-1.6699,-1.6699,-1.6699,0,0,-1.6755,-1.6746,-1.6752,-1.675,-1.6745,-1.6753,-1.6722,-1.6731,-1.6736,-1.6706,-1.6719,-1.6712,-1.6706,-1.6726,-1.6735,-1.6722,-1.6771,-1.6753,-1.6757,-1.6757,-1.6767,-1.6774,-1.678,-1.6701,-1.6701,-1.6701,0,0,-1.6803,-1.6798,-1.6814,-1.6809,-1.6802,-1.6789,-1.6793,-1.6781,-1.6774,-1.6788,-1.6764,-1.677,-1.6778,-1.6774,-1.6773,-1.6818,-1.68,-1.682,-1.685,-1.6861,-1.6866,-1.6871,-1.6885,-1.6891,-1.6823,-1.6823,-1.6823,0,-1.6835,-1.6845,-1.6825,-1.6835,-1.6835,-1.6806,-1.6822,-1.6819,-1.6813,-1.6813,-1.6799,-1.6807,-1.6801,-1.6819,-1.6829,-1.683,-1.6833,-1.6821,-1.6867,-1.6871,-1.6876,-1.6889,-1.6895,-1.6826,-1.6825,-1.6825,-1.6825,0,-1.6884,-1.6891,-1.6905,-1.6899,-1.69,-1.6913,-1.6894,-1.6898,-1.6883,-1.6872,-1.6885,-1.6877,-1.6877,-1.688,-1.6867,-1.6896,-1.6888,-1.6871,-1.6846,-1.6885,-1.6897,-1.6902,-1.6829,-1.6828,-1.6827,-1.6827,0,0,-1.6959,-1.694,-1.6945,-1.6941,-1.693,-1.6935,-1.6947,-1.6946,-1.6948,-1.6945,-1.6953,-1.696,-1.6943,-1.6942,-1.6928,-1.6938,-1.6972,-1.6919,-1.6919,-1.6928,-1.7001,-1.7013,-1.702,-1.696,-1.6961,-1.6962,-1.7001,0,-1.7004,-1.7021,-1.7002,-1.7024,-1.703,-1.7002,-1.7012,-1.7006,-1.6995,-1.6999,-1.6987,-1.6992,-1.697,-1.6969,-1.6978,-1.6966,-1.6986,-1.6963,-1.6967,-1.6967,-1.6968,-1.7026,-1.7039,-1.7077,-1.7006,-1.7007,-1.7008,0,-1.7058,-1.7056,-1.7078,-1.7063,-1.7065,-1.7074,-1.707,-1.7074,-1.7066,-1.7058,-1.7056,-1.7038,-1.7048,-1.7024,-1.7036,-1.7021,-1.7021,-1.7016,-1.7017,-1.7015,-1.6989,-1.7025,-1.7089,-1.7094,-1.7015,-1.7015,-1.7014,0,-1.7109,-1.7111,-1.7124,-1.7122,-1.7106,-1.7112,-1.7106,-1.7097,-1.7097,-1.7094,-1.7094,-1.7093,-1.7092,-1.7091,-1.7073,-1.7058,-1.7087,-1.7062,-1.708,-1.708,-1.7086,-1.7086,-1.7149,-1.7089,-1.7089,-1.7089,-1.7089,0,-1.716,-1.7174,-1.7146,-1.7154,-1.7168,-1.7146,-1.7161,-1.7152,-1.7144,-1.7149,-1.7126,-1.7131,-1.7108,-1.7111,-1.7097,-1.7108,-1.7109,-1.7102,-1.7098,-1.7103,-1.7104,-1.7102,-1.7099,-1.709,-1.709,-1.709,-1.7089,0,-1.7218,-1.7201,-1.7212,-1.7196,-1.7192,-1.7203,-1.7188,-1.7195,-1.7182,-1.7189,-1.7189,-1.717,-1.7172,-1.7154,-1.7154,-1.7144,-1.7161,-1.7154,-1.7164,-1.7161,-1.7178,-1.7176,-1.7242,-1.7249,-1.7186,-1.7186,-1.7187,0,-1.7251,-1.7261,-1.7245,-1.7246,-1.7241,-1.7244,-1.7243,-1.7221,-1.7222,-1.7213,-1.722,-1.7219,-1.7218,-1.7222,-1.7208,-1.7207,-1.7198,-1.7221,-1.7198,-1.7202,-1.7196,-1.7195,-1.7196,-1.7226,-1.7226,-1.7227,-1.7228,0,-1.7311,-1.7301,-1.7301,-1.7298,-1.7297,-1.7294,-1.7288,-1.7291,-1.7267,-1.7269,-1.727,-1.7269,-1.7267,-1.7266,-1.7262,-1.7255,-1.7237,-1.7235,-1.7239,-1.7244,-1.7248,-1.7244,-1.7175,-1.7233,-1.7233,-1.7232,-1.7232,-1.7232,-1.7357,-1.7363,-1.7352,-1.7352,-1.7346,-1.7341,-1.7346,-1.7333,-1.7334,-1.733,-1.7317,-1.732,-1.7311,-1.7303,-1.7298,-1.7299,-1.7288,-1.7294,-1.7295,-1.7296,-1.7299,-1.7249,-1.7299,-1.7299,-1.7298,-1.7298,-1.7298,0,-1.7414,-1.7405,-1.7405,-1.7398,-1.7398,-1.738,-1.7373,-1.7374,-1.7377,-1.7369,-1.7368,-1.7368,-1.7367,-1.7353,-1.735,-1.7354,-1.7346,-1.7354,-1.7353,-1.7352,-1.731,-1.7306,-1.7361,-1.7361,-1.7361,-1.7361,-1.7361,-1.7361,-1.7443,-1.7453,-1.7442,-1.7447,-1.7439,-1.7441,-1.7438,-1.7433,-1.7427,-1.7428,-1.7427,-1.7417,-1.7406,-1.7403,-1.7401,-1.7397,-1.7396,-1.7407,-1.74,-1.7361,-1.7355,-1.7349,-1.7345,-1.7407,-1.7408,-1.7441,-1.7441,-1.7442]}]]